Location: Sobotiste
(48.7170°N, 17.4000°E)
Time: 10:49:32
(UTC+02:00)

CAS-6 - Pass Details

Date: 18 March 2026
Orbit: 601 x 618 km, 97.8° (Epoch: 18 April)

Event Time Altitude Azimuth Distance (km) Brightness Sun altitude
Exits shadow 21:28:04 20° 355° (N) 1,399 ? -32.1°
Drops below altitude 10° 21:29:28 10° 352° (N) 1,959 ? -32.3°
Sets 21:31:40 0° 349° (N) 2,870 ? -32.6°
